Regional Weather Roundup
Issued by NWS

Home | Current Version | Previous Version | Text Only | Print | Product List | Glossary Off
Versions: 1 2 3 4 5 6 7 8 9 10 11 12 13 14 15 16 17 18 19 20 21 22 23 24 25 26 27

000
ASUS45 KCYS 170510
RWRWY

WYOMING REGIONAL WEATHER ROUNDUP
NATIONAL WEATHER SERVICE CHEYENNE WY
1100 PM MDT MON OCT 16 2017

NOTE:  "FAIR" INDICATES FEW OR NO CLOUDS BELOW 12,000 FEET
WITH NO SIGNIFICANT WEATHER AND/OR OBSTRUCTIONS TO VISIBILITY.

WYZ001-170600-
YELLOWSTONE NATIONAL PARK

CITY           SKY/WX    TMP DP  RH WIND       PRES   REMARKS
LK YELLOWSTONE   N/A     26  20  77 CALM      30.41R
W YELLOWSTONE  NOT AVBL

$$
WYZ002>013-054>058-071-098>099-170600-
NORTHERN WYOMING

CITY           SKY/WX    TMP DP  RH WIND       PRES   REMARKS
JACKSON        NOT AVBL
CODY           FAIR      57  17  21 SW20G26   30.22S
GREYBULL       FAIR      45  25  45 SE6       30.17R
WORLAND        FAIR      38  31  76 S7        30.17S WCI  33
SHERIDAN       FAIR      40  25  55 CALM      30.11F
BUFFALO        FAIR      46  16  30 W6        30.17F
GILLETTE       FAIR      35  27  72 S7        30.14S WCI  29
HULETT         FAIR      45  27  49 SW7       30.14S
NEWCASTLE      FAIR      43  27  52 N7        30.16S

$$
WYZ014>020-022>026-101>103-170600-
CENTRAL WYOMING

CITY           SKY/WX    TMP DP  RH WIND       PRES   REMARKS
BIG PINEY      FAIR      33  13  43 NW7       30.39S WCI  27
PINEDALE       FAIR      27  18  69 CALM      30.40R
DUBOIS         FAIR      34  18  51 NW12      30.34S WCI  25
LANDER         NOT AVBL
RIVERTON       FAIR      48  19  31 W9        30.24R
CASPER         FAIR      38  20  48 SW5       30.23S WCI  34
DOUGLAS        FAIR      37  20  50 CALM      30.21F

$$
WYZ021-027>030-104>119-170600-
SOUTHERN WYOMING

CITY           SKY/WX    TMP DP  RH WIND       PRES   REMARKS
EVANSTON       FAIR      43   5  20 S8        30.41S
KEMMERER       FAIR      41   9  26 W8        30.40F
FORT BRIDGER   FAIR      49   3  15 SW14      30.42S
ROCK SPRINGS   FAIR      44   7  21 SW9       30.38R
DIXON          FAIR      33  13  43 SE7       30.41S WCI  27
RAWLINS        FAIR      47   8  20 SW10      30.34S
SARATOGA       FAIR      34  14  44 S3        30.38R
LARAMIE        FAIR      39   8  27 W7        30.34S WCI  34
CHEYENNE       FAIR      49  10  20 W8        30.29S
TORRINGTON     FAIR      39  24  55 E3        30.18S
PINE BLUFFS    FAIR      36  23  60 MISG      30.27R

$$




USA.gov is the U.S. government's official web portal to all federal, state and local government web resources and services.